Location: Lussas
(44.6119°N, 4.4726°E)
Time: 14:11:30
(UTC+00:00)

CZ-4B R/B - Pass Details

Date: 26 November 2020
Orbit: 809 x 881 km, 99.1° (Epoch: 27 January)

Event Time Altitude Azimuth Distance (km) Brightness Sun altitude
Rises 05:40:49 0° 19° (NNE) 3,350 6.4 -12.7°
Reaches altitude 10° 05:43:15 10° 25° (NNE) 2,419 5.7 -12.2°
Maximum altitude 05:48:25 48° 100° (E) 1,067 4.3 -11.4°
Drops below altitude 10° 05:53:37 10° 175° (S) 2,440 5.9 -10.5°
Sets 05:56:04 0° 180° (S) 3,381 6.6 -10.1°
